Yakima, WA
on Thursday, December 6, 2012

Thursday
Previous Day Next Day
Daily Summary
 ActualAverageRecord
Temperature
Mean Temperature °F 30°F  
Max Temperature 49°F 38°F 55°F (1999)
Min Temperature 27°F 22°F 0°F (1984)
Degree Days
Heating Degree Days 27 35  
Month to date heating degree days 125 205  
Since 1 July heating degree days 1363 1738  
Cooling Degree Days 0 0  
Month to date cooling degree days 0 0  
Year to date cooling degree days 667 472  
Moisture
Dew Point 28°F   
Average Humidity 73    
Maximum Humidity 92    
Minimum Humidity 54    
Precipitation
Precipitation 0.00 in 0.05 in 0.35 in (1987)
Month to date precipitation 0.74 0.30  
Year to date precipitation 7.93 7.02  
Snow
Snow 0.00 in 0.30 in 2.70 in (2001)
Month to date snowfall 0.0 1.7  
Year to date snowfall 22.2 13.9  
Since 1 July snowfall 0.7 5.3  
Snow Depth 0.00 in   
Wind
Wind Speed 2 mph   
Max Wind Speed 10 mph   
Max Gust Speed 13 mph   
Visibility 10 miles   
Events     

Key: T is trace of precipitation, MM is missing value
Source: NWS Daily Summary
Time(PST)TemperatureDew PointHumidity Pressure Visibility Wind DirectionWind SpeedGust SpeedPrecipitationEvents Conditions
12:53 AM 28.9°F 26.1°F 89% 30.19 in 10.0 miles West 4.6 mph - N/A   Clear
1:53 AM 28.0°F 25.0°F 88% 30.19 in 10.0 miles West 3.5 mph - N/A   Clear
2:53 AM 28.0°F 24.1°F 85% 30.19 in 10.0 miles NW 6.9 mph - N/A   Clear
3:53 AM 28.0°F 24.1°F 85% 30.17 in 10.0 miles Calm Calm - N/A   Partly Cloudy
4:53 AM 28.0°F 24.1°F 85% 30.17 in 10.0 miles Calm Calm - N/A   Clear
5:53 AM 30.0°F 26.1°F 85% 30.16 in 10.0 miles Calm Calm - N/A   Scattered Clouds
6:53 AM 30.0°F 26.1°F 85% 30.16 in 10.0 miles West 4.6 mph - N/A   Clear
7:53 AM 30.9°F 26.1°F 82% 30.15 in 10.0 miles Calm Calm - N/A   Mostly Cloudy
8:53 AM 32.0°F 27.0°F 82% 30.14 in 10.0 miles Calm Calm - N/A   Mostly Cloudy
9:53 AM 34.0°F 28.9°F 82% 30.14 in 9.0 miles Calm Calm - N/A   Clear
10:53 AM 34.0°F 28.9°F 82% 30.14 in 9.0 miles Calm Calm - N/A   Scattered Clouds
11:53 AM 37.9°F 30.9°F 76% 30.11 in 10.0 miles Calm Calm - N/A   Partly Cloudy
12:53 PM 45.0°F 32.0°F 60% 30.06 in 10.0 miles ENE 4.6 mph - N/A   Partly Cloudy
1:53 PM 48.0°F 32.0°F 54% 30.04 in 10.0 miles ENE 4.6 mph - N/A   Mostly Cloudy
2:53 PM 48.9°F 34.0°F 56% 30.02 in 10.0 miles West 5.8 mph - N/A   Mostly Cloudy
3:53 PM 43.0°F 33.1°F 68% 30.04 in 10.0 miles Calm Calm - N/A   Mostly Cloudy
4:53 PM 39.0°F 32.0°F 76% 30.04 in 10.0 miles North 3.5 mph - N/A   Mostly Cloudy
5:53 PM 37.0°F 30.0°F 76% 30.04 in 10.0 miles South 4.6 mph - N/A   Clear
6:53 PM 36.0°F 30.0°F 79% 30.06 in 10.0 miles WNW 3.5 mph - N/A   Partly Cloudy
7:53 PM 35.1°F 30.9°F 85% 30.09 in 10.0 miles Calm Calm - N/A   Partly Cloudy
8:53 PM 33.1°F 28.9°F 85% 30.09 in 10.0 miles NW 5.8 mph - N/A   Clear
9:53 PM 33.1°F 28.9°F 85% 30.11 in 10.0 miles Calm Calm - N/A   Clear
10:53 PM 28.9°F 26.1°F 89% 30.11 in 10.0 miles WNW 3.5 mph - N/A   Clear
11:53 PM 28.9°F 26.1°F 89% 30.11 in 9.0 miles Calm Calm - N/A   Clear
Moon Phase
Dec. 06 Dec. 13 Dec. 20 Dec. 28 Jan. 04
Sunrise:07:31 AM (PST) Moon Rise:No Moon Rise/
Sunset:04:14 PM (PST) Moon Set:12:05 PM (PST)12/6

Copyright © 2014 The Weather Underground, Inc.